DW9249 Weather Reports


time (UTC)temp
C
wind
direction
speed
KPH
gust
KPH
rain 1hr
cm
rain 24hr
cm
rain mn
cm
humidity
%
barometer
mb
20260504004114 13 212 0.0 0.0 0.00 0.00 0.00 39 1003.2
20260504003614 13 212 0.0 0.0 0.00 0.00 0.00 39 1003.1
20260504003117 13 212 0.0 0.0 0.00 0.00 0.00 38 1003.0
20260504002607 14 212 0.0 0.0 0.00 0.00 0.00 37 1002.9
20260504002051 14 212 0.0 0.0 0.00 0.00 0.00 36 1002.8
20260504001549 14 212 0.0 0.0 0.00 0.00 0.00 35 1002.7
20260504001040 14 212 0.0 0.0 0.00 0.00 0.00 34 1002.6
20260503235901 15 225 0.0 6.4 0.00 0.00 0.00 33 1002.5
20260503235353 15 198 0.0 11.3 0.00 0.00 0.00 32 1002.5
20260503234852 15 198 1.6 11.3 0.00 0.00 0.00 32 1002.4
20260503234334 15 217 1.6 9.7 0.00 0.00 0.00 32 1002.3
20260503233845 15 188 1.6 9.7 0.00 0.00 0.00 33 1002.2
20260503233338 15 215 0.0 9.7 0.00 0.00 0.00 32 1002.2
20260503232841 15 244 0.0 4.8 0.00 0.00 0.00 32 1002.1
20260503230434 15 217 1.6 8.0 0.00 0.00 0.00 30 1002.0
20260503225943 15 248 1.6 8.0 0.00 0.00 0.00 31 1002.0
20260503225444 15 173 1.6 8.0 0.00 0.00 0.00 29 1001.9
20260503224942 16 315 1.6 11.3 0.00 0.00 0.00 31 1002.0
20260503224451 16 215 1.6 11.3 0.00 0.00 0.00 30 1002.0
20260503223311 16 209 3.2 11.3 0.00 0.00 0.00 30 1001.9
20260503222805 16 198 3.2 9.7 0.00 0.00 0.00 29 1001.9
20260503222249 16 177 1.6 1.6 0.00 0.00 0.00 28 1001.8
20260503221748 16 208 3.2 20.9 0.00 0.00 0.00 28 1001.7
20260503221257 16 211 3.2 20.9 0.00 0.00 0.00 27 1001.8
20260503220759 16 345 3.2 8.0 0.00 0.00 0.00 27 1001.7
20260503220306 16 217 4.8 16.1 0.00 0.00 0.00 26 1001.8
20260503215748 16 224 3.2 16.1 0.00 0.00 0.00 28 1001.7
20260503215243 17 20 3.2 16.1 0.00 0.00 0.00 28 1001.8
20260503214742 17 201 1.6 14.5 0.00 0.00 0.00 28 1001.8
20260503214224 17 182 0.0 11.3 0.00 0.00 0.00 28 1001.8
20260503213717 17 200 1.6 17.7 0.00 0.00 0.00 27 1001.7
20260503212537 16 5 1.6 19.3 0.00 0.00 0.00 29 1001.8
20260503212046 16 344 4.8 19.3 0.00 0.00 0.00 28 1001.8
20260503211529 16 205 6.4 20.9 0.00 0.00 0.00 28 1001.8
20260503211024 16 194 4.8 20.9 0.00 0.00 0.00 26 1001.8
20260503210524 16 350 4.8 20.9 0.00 0.00 0.00 27 1001.8
20260503210024 16 234 3.2 20.9 0.00 0.00 0.00 29 1001.7
20260503205504 16 329 4.8 19.3 0.00 0.00 0.00 27 1001.8
20260503204338 17 338 3.2 16.1 0.00 0.00 0.00 27 1001.7
20260503203224 16 342 3.2 19.3 0.00 0.00 0.00 28 1001.8
20260503202721 16 124 4.8 19.3 0.00 0.00 0.00 30 1001.8
20260503202222 16 318 4.8 22.5 0.00 0.00 0.00 26 1002.1
20260503201721 16 238 4.8 22.5 0.00 0.00 0.00 29 1002.1
20260503201206 16 346 4.8 24.1 0.00 0.00 0.00 29 1002.0
20260503200646 16 193 3.2 24.1 0.00 0.00 0.00 29 1002.1
20260503195544 16 291 4.8 24.1 0.00 0.00 0.00 28 1002.2
20260503195048 16 329 4.8 19.3 0.00 0.00 0.00 32 1002.3
20260503194536 15 9 4.8 19.3 0.00 0.00 0.00 29 1002.4
20260503194023 15 182 3.2 19.3 0.00 0.00 0.00 30 1002.2
20260503193514 15 252 1.6 17.7 0.00 0.00 0.00 29 1002.2
20260503193007 15 340 3.2 17.7 0.00 0.00 0.00 29 1002.3
20260503192448 15 350 4.8 24.1 0.00 0.00 0.00 30 1002.5
20260503191940 15 203 4.8 24.1 0.00 0.00 0.00 31 1002.6
20260503191444 15 17 3.2 24.1 0.00 0.00 0.00 31 1002.5
20260503190326 15 187 4.8 22.5 0.00 0.00 0.00 32 1002.5
20260503185828 15 338 4.8 22.5 0.00 0.00 0.00 30 1002.7
20260503185336 15 5 4.8 30.6 0.00 0.00 0.00 30 1002.7
20260503184817 15 350 4.8 30.6 0.00 0.00 0.00 31 1002.7
20260503183655 15 180 3.2 30.6 0.00 0.00 0.00 31 1002.7
20260503183156 15 165 1.6 14.5 0.00 0.00 0.00 35 1002.9
20260503182659 15 331 3.2 14.5 0.00 0.00 0.00 32 1002.9
20260503182208 14 345 3.2 22.5 0.00 0.00 0.00 33 1002.8
20260503181703 13 208 4.8 22.5 0.00 0.00 0.00 35 1002.9
20260503181154 13 199 6.4 22.5 0.00 0.00 0.00 34 1002.8
20260503180654 15 347 4.8 22.5 0.00 0.00 0.00 31 1002.9
20260503175536 14 148 4.8 17.7 0.00 0.00 0.00 34 1003.0
20260503175018 13 261 4.8 17.7 0.00 0.00 0.00 37 1003.0
20260503174501 13 9 4.8 17.7 0.00 0.00 0.00 37 1003.1
20260503173944 13 249 4.8 17.7 0.00 0.00 0.00 34 1003.1
20260503173451 13 346 3.2 16.1 0.00 0.00 0.00 34 1003.1
20260503172942 13 286 3.2 16.1 0.00 0.00 0.00 35 1003.3
20260503172424 12 5 4.8 24.1 0.00 0.00 0.00 36 1003.5
20260503171933 13 5 4.8 24.1 0.00 0.00 0.00 36 1003.4
20260503171426 13 185 4.8 24.1 0.00 0.00 0.00 38 1003.5
20260503170923 12 192 4.8 24.1 0.00 0.00 0.00 39 1003.5
20260503170429 13 259 4.8 16.1 0.00 0.00 0.00 37 1003.5
20260503160118 11 20 4.8 24.1 0.00 0.00 0.00 38 1003.7
20260503140204 11 19 3.2 14.5 0.00 0.00 0.00 42 1004.0
20260503130325 10 57 3.2 14.5 0.00 0.00 0.00 51 1003.9
20260503110738 7 189 0.0 6.4 0.00 0.00 0.00 58 1003.6
20260503110237 7 205 0.0 3.2 0.00 0.00 0.00 59 1003.5
20260503090440 8 0 0.0 6.4 0.00 0.00 0.00 53 1002.4
20260503080714 8 332 0.0 6.4 0.00 0.00 0.00 52 1002.1
20260503080205 8 17 0.0 3.2 0.00 0.00 0.00 52 1002.0
20260503072849 8 22 0.0 0.0 0.00 0.00 0.00 51 1002.0
20260503072352 8 22 0.0 0.0 0.00 0.00 0.00 51 1002.0
20260503071846 8 22 0.0 0.0 0.00 0.00 0.00 51 1002.0
20260503071351 8 22 0.0 0.0 0.00 0.00 0.00 51 1002.0
20260503070834 8 17 0.0 1.6 0.00 0.00 0.00 52 1002.0
20260503070327 8 36 0.0 0.0 0.00 0.00 0.00 51 1002.1
20260503054837 10 36 0.0 0.0 0.00 0.00 0.00 47 1002.3
20260503054337 10 38 0.0 0.0 0.00 0.00 0.00 48 1002.3
20260503053841 10 38 0.0 0.0 0.00 0.00 0.00 48 1002.3
20260503051456 10 24 0.0 4.8 0.00 0.00 0.00 49 1002.4
20260503050945 10 30 0.0 8.0 0.00 0.00 0.00 46 1002.5
20260503050453 10 30 0.0 8.0 0.00 0.00 0.00 47 1002.5
20260503045938 10 27 0.0 8.0 0.00 0.00 0.00 46 1002.5
20260503045436 10 84 0.0 8.0 0.00 0.00 0.00 47 1002.6
20260503044312 10 34 0.0 0.0 0.00 0.00 0.00 49 1002.6
20260503043759 10 34 0.0 4.8 0.00 0.00 0.00 48 1002.6
20260503043257 10 32 0.0 0.0 0.00 0.00 0.00 49 1002.6
20260503042742 10 32 0.0 8.0 0.00 0.00 0.00 47 1002.7
20260503042228 10 17 0.0 3.2 0.00 0.00 0.00 48 1002.7
20260503041712 10 17 0.0 0.0 0.00 0.00 0.00 50 1002.7
20260503041212 10 17 0.0 0.0 0.00 0.00 0.00 50 1002.7
20260503040716 10 17 0.0 0.0 0.00 0.00 0.00 50 1002.7
20260503040206 10 17 0.0 0.0 0.00 0.00 0.00 48 1002.7
20260503035657 10 17 0.0 0.0 0.00 0.00 0.00 48 1002.6
20260503035156 10 17 0.0 0.0 0.00 0.00 0.00 49 1002.6
20260503034034 10 17 0.0 0.0 0.00 0.00 0.00 49 1002.6
20260503032850 10 17 0.0 0.0 0.00 0.00 0.00 49 1002.4
20260503032358 10 17 0.0 0.0 0.00 0.00 0.00 50 1002.5
20260503031851 10 17 0.0 0.0 0.00 0.00 0.00 49 1002.6
20260503031358 10 17 0.0 0.0 0.00 0.00 0.00 47 1002.6
20260503030237 11 17 0.0 0.0 0.00 0.00 0.00 49 1002.7
20260503025100 11 17 0.0 0.0 0.00 0.00 0.00 45 1002.6
20260503024604 11 17 0.0 0.0 0.00 0.00 0.00 46 1002.7
20260503024051 11 17 0.0 0.0 0.00 0.00 0.00 45 1002.7
20260503023542 11 17 0.0 0.0 0.00 0.00 0.00 44 1002.7
20260503023042 11 17 0.0 0.0 0.00 0.00 0.00 44 1002.7
20260503022549 11 17 0.0 0.0 0.00 0.00 0.00 45 1002.6
20260503022032 11 17 0.0 0.0 0.00 0.00 0.00 45 1002.6
20260503021538 11 17 0.0 4.8 0.00 0.00 0.00 46 1002.6
20260503015742 12 17 0.0 0.0 0.00 0.00 0.00 44 1002.8
20260503013945 12 17 0.0 0.0 0.00 0.00 0.00 43 1002.9
20260503013451 12 17 0.0 0.0 0.00 0.00 0.00 43 1002.8
20260503012950 12 17 0.0 0.0 0.00 0.00 0.00 42 1002.8
20260503011834 12 17 0.0 0.0 0.00 0.00 0.00 41 1002.8
20260503010043 12 17 0.0 0.0 0.00 0.00 0.00 43 1002.6
20260503005527 12 17 0.0 0.0 0.00 0.00 0.00 42 1002.4
20260503005019 12 17 0.0 0.0 0.00 0.00 0.00 42 1002.3